Location: Unspecified
(0.0000°N, 0.0000°E)
Time: 08:26:19
(UTC+00:00)

ATLAS 5 CENTAUR DEB - Pass Details

Date: 17 February 2026
Orbit: 7342 x 34659 km, 20.8° (Epoch: 6 March)

Event Time Altitude Azimuth Distance (km) Brightness Sun altitude
Rises 14:56:45 0° 266° (W) 12,506 ? 47.9°
Reaches altitude 10° 15:05:02 10° 260° (W) 11,134 ? 45.9°
Maximum altitude 15:46:47 56° 177° (S) 10,275 ? 35.9°
Enters shadow 20:50:59 40° 78° (ENE) 36,380 ? -38.3°
Exits shadow 22:27:54 46° 67° (ENE) 35,392 ? -61.2°
Drops below altitude 10° 02:32:26 10° 70° (ENE) 17,793 ? -53.7°
Sets 02:46:17 0° 75° (ENE) 16,965 ? -50.4°
